Time,TemperatureF,DewpointF,PressureIn,WindDirection,WindDirectionDegrees,WindSpeedMPH,WindSpeedGustMPH,Humidity,HourlyPrecipIn,Conditions,Clouds,dailyrainin,SoftwareType,DateUTC
2013-03-02 00:00:00,55.3,40.8,30.03,North,6,0.0,7.0,58,0.00,,,0.00,Wunderground v.1.15,2013-03-02 05:00:00,
2013-03-02 00:05:00,55.2,40.7,30.03,NE,45,1.0,2.0,58,0.00,,,0.00,Wunderground v.1.15,2013-03-02 05:05:00,
2013-03-02 00:08:00,55.2,40.7,30.03,NE,52,1.0,2.0,58,0.00,,,0.00,Wunderground v.1.15,2013-03-02 05:08:00,
2013-03-02 00:14:00,55.3,40.8,30.03,NE,44,2.0,2.0,58,0.00,,,0.00,Wunderground v.1.15,2013-03-02 05:14:00,
2013-03-02 00:20:00,55.3,41.2,30.03,NNE,26,3.0,3.0,59,0.00,,,0.00,Wunderground v.1.15,2013-03-02 05:20:00,
2013-03-02 00:25:00,55.4,40.4,30.03,South,188,0.0,6.0,57,0.00,,,0.00,Wunderground v.1.15,2013-03-02 05:25:00,
2013-03-02 00:31:00,55.3,40.8,30.03,NE,55,2.0,2.0,58,0.00,,,0.00,Wunderground v.1.15,2013-03-02 05:31:00,
2013-03-02 00:37:00,55.3,41.2,30.03,ENE,58,0.0,3.0,59,0.00,,,0.00,Wunderground v.1.15,2013-03-02 05:37:00,
2013-03-02 00:42:00,55.2,41.1,30.03,West,269,3.0,3.0,59,0.00,,,0.00,Wunderground v.1.15,2013-03-02 05:42:00,
2013-03-02 00:47:00,55.1,40.6,30.03,NE,37,1.0,3.0,58,0.00,,,0.00,Wunderground v.1.15,2013-03-02 05:47:00,
2013-03-02 00:53:00,55.0,40.5,30.03,WSW,245,0.0,1.0,58,0.00,,,0.00,Wunderground v.1.15,2013-03-02 05:53:00,
2013-03-02 00:59:00,54.9,40.8,30.03,NNE,27,1.0,2.0,59,0.00,,,0.00,Wunderground v.1.15,2013-03-02 05:59:00,
2013-03-02 01:04:00,54.9,40.4,30.03,North,5,3.0,3.0,58,0.00,,,0.00,Wunderground v.1.15,2013-03-02 06:04:00,
2013-03-02 01:10:00,54.9,40.4,30.03,SSW,201,1.0,4.0,58,0.00,,,0.00,Wunderground v.1.15,2013-03-02 06:10:00,
2013-03-02 01:15:00,54.8,40.3,30.03,NE,48,2.0,3.0,58,0.00,,,0.00,Wunderground v.1.15,2013-03-02 06:15:00,
2013-03-02 01:21:00,54.6,41.0,30.03,NNE,19,1.0,2.0,60,0.00,,,0.00,Wunderground v.1.15,2013-03-02 06:21:00,
2013-03-02 01:27:00,54.5,40.5,30.03,NNE,31,5.0,5.0,59,0.00,,,0.00,Wunderground v.1.15,2013-03-02 06:27:00,
2013-03-02 01:33:00,54.5,40.9,30.03,ENE,62,1.0,4.0,60,0.00,,,0.00,Wunderground v.1.15,2013-03-02 06:33:00,
2013-03-02 01:38:00,54.4,41.2,30.03,SW,218,1.0,4.0,61,0.00,,,0.00,Wunderground v.1.15,2013-03-02 06:38:00,
2013-03-02 01:44:00,54.5,40.5,30.03,NE,46,2.0,3.0,59,0.00,,,0.00,Wunderground v.1.15,2013-03-02 06:44:00,
2013-03-02 01:50:00,54.5,41.3,30.03,ESE,113,0.0,3.0,61,0.00,,,0.00,Wunderground v.1.15,2013-03-02 06:50:00,
2013-03-02 01:55:00,54.5,41.3,30.03,NE,46,1.0,3.0,61,0.00,,,0.00,Wunderground v.1.15,2013-03-02 06:55:00,
2013-03-02 02:01:00,54.5,41.3,30.03,NE,45,1.0,1.0,61,0.00,,,0.00,Wunderground v.1.15,2013-03-02 07:01:00,
2013-03-02 02:06:00,54.5,41.3,30.03,NE,39,2.0,7.0,61,0.00,,,0.00,Wunderground v.1.15,2013-03-02 07:06:00,
2013-03-02 02:11:00,54.5,40.9,30.03,NE,56,6.0,6.0,60,0.00,,,0.00,Wunderground v.1.15,2013-03-02 07:11:00,
2013-03-02 02:16:00,54.5,41.3,30.03,NE,49,1.0,8.0,61,0.00,,,0.00,Wunderground v.1.15,2013-03-02 07:16:00,
2013-03-02 02:21:00,54.5,40.9,30.03,NE,49,2.0,4.0,60,0.00,,,0.00,Wunderground v.1.15,2013-03-02 07:21:00,
2013-03-02 02:26:00,54.4,40.8,30.03,NE,35,1.0,8.0,60,0.00,,,0.00,Wunderground v.1.15,2013-03-02 07:26:00,
2013-03-02 02:31:00,54.4,41.2,30.03,SE,127,1.0,4.0,61,0.00,,,0.00,Wunderground v.1.15,2013-03-02 07:31:00,
2013-03-02 02:36:00,54.4,41.2,30.02,ENE,69,0.0,7.0,61,0.00,,,0.00,Wunderground v.1.15,2013-03-02 07:36:00,
2013-03-02 02:41:00,54.4,40.8,30.02,North,359,2.0,5.0,60,0.00,,,0.00,Wunderground v.1.15,2013-03-02 07:41:00,
2013-03-02 02:46:00,54.4,40.8,30.02,NE,42,3.0,8.0,60,0.00,,,0.00,Wunderground v.1.15,2013-03-02 07:46:00,
2013-03-02 02:51:00,54.5,40.9,30.02,NE,44,5.0,5.0,60,0.00,,,0.00,Wunderground v.1.15,2013-03-02 07:51:00,
2013-03-02 02:56:00,54.5,40.9,30.02,NE,56,1.0,7.0,60,0.00,,,0.00,Wunderground v.1.15,2013-03-02 07:56:00,
2013-03-02 03:01:00,54.5,41.3,30.02,NW,311,0.0,2.0,61,0.00,,,0.00,Wunderground v.1.15,2013-03-02 08:01:00,
2013-03-02 03:06:00,54.4,41.2,30.02,NE,38,3.0,3.0,61,0.00,,,0.00,Wunderground v.1.15,2013-03-02 08:06:00,
2013-03-02 03:11:00,54.5,41.3,30.02,ENE,60,1.0,2.0,61,0.00,,,0.00,Wunderground v.1.15,2013-03-02 08:11:00,
2013-03-02 03:16:00,54.6,41.4,30.02,NE,51,1.0,7.0,61,0.00,,,0.00,Wunderground v.1.15,2013-03-02 08:16:00,
2013-03-02 03:21:00,54.6,41.0,30.03,NNW,345,5.0,7.0,60,0.00,,,0.00,Wunderground v.1.15,2013-03-02 08:21:00,
2013-03-02 03:26:00,54.7,40.6,30.02,SSW,211,0.0,8.0,59,0.00,,,0.00,Wunderground v.1.15,2013-03-02 08:26:00,
2013-03-02 03:31:00,54.5,40.5,30.02,NNE,29,3.0,6.0,59,0.00,,,0.00,Wunderground v.1.15,2013-03-02 08:31:00,
2013-03-02 03:36:00,54.5,40.0,30.02,WSW,247,2.0,10.0,58,0.00,,,0.00,Wunderground v.1.15,2013-03-02 08:36:00,
2013-03-02 03:41:00,54.5,40.0,30.02,NE,55,7.0,7.0,58,0.00,,,0.00,Wunderground v.1.15,2013-03-02 08:41:00,
2013-03-02 03:46:00,54.4,39.9,30.01,NNE,15,1.0,8.0,58,0.00,,,0.00,Wunderground v.1.15,2013-03-02 08:46:00,
2013-03-02 03:51:00,54.3,39.8,30.01,NE,39,3.0,8.0,58,0.00,,,0.00,Wunderground v.1.15,2013-03-02 08:51:00,
2013-03-02 03:56:00,54.1,39.6,30.02,NE,44,2.0,8.0,58,0.00,,,0.00,Wunderground v.1.15,2013-03-02 08:56:00,
2013-03-02 04:01:00,53.9,39.0,30.02,NE,37,2.0,4.0,57,0.00,,,0.00,Wunderground v.1.15,2013-03-02 09:01:00,
2013-03-02 04:06:00,53.8,38.9,30.02,NE,46,0.0,8.0,57,0.00,,,0.00,Wunderground v.1.15,2013-03-02 09:06:00,
2013-03-02 04:11:00,53.8,39.8,30.02,ENE,72,0.0,2.0,59,0.00,,,0.00,Wunderground v.1.15,2013-03-02 09:11:00,
2013-03-02 04:16:00,53.9,39.9,30.02,NE,56,0.0,3.0,59,0.00,,,0.00,Wunderground v.1.15,2013-03-02 09:16:00,
2013-03-02 04:21:00,53.8,39.8,30.01,NE,39,0.0,1.0,59,0.00,,,0.00,Wunderground v.1.15,2013-03-02 09:21:00,
2013-03-02 04:26:00,53.9,40.3,30.02,ENE,58,0.0,2.0,60,0.00,,,0.00,Wunderground v.1.15,2013-03-02 09:26:00,
2013-03-02 04:31:00,53.8,40.7,30.01,NE,46,0.0,1.0,61,0.00,,,0.00,Wunderground v.1.15,2013-03-02 09:31:00,
2013-03-02 04:37:00,53.7,40.6,30.01,NE,46,0.0,1.0,61,0.00,,,0.00,Wunderground v.1.15,2013-03-02 09:37:00,
2013-03-02 04:41:00,53.5,40.8,30.01,NE,46,0.0,0.0,62,0.00,,,0.00,Wunderground v.1.15,2013-03-02 09:41:00,
2013-03-02 04:46:00,53.4,40.7,30.01,NNE,24,0.0,1.0,62,0.00,,,0.00,Wunderground v.1.15,2013-03-02 09:46:00,
2013-03-02 04:52:00,53.2,40.1,30.01,NE,48,1.0,1.0,61,0.00,,,0.00,Wunderground v.1.15,2013-03-02 09:52:00,
2013-03-02 04:57:00,53.0,39.9,30.00,NNE,32,0.0,2.0,61,0.00,,,0.00,Wunderground v.1.15,2013-03-02 09:57:00,
2013-03-02 05:02:00,52.7,40.5,30.00,NNE,32,0.0,0.0,63,0.00,,,0.00,Wunderground v.1.15,2013-03-02 10:02:00,
2013-03-02 05:07:00,52.1,40.3,30.00,SSE,167,0.0,2.0,64,0.00,,,0.00,Wunderground v.1.15,2013-03-02 10:07:00,
2013-03-02 05:13:00,51.6,40.2,30.00,NE,54,2.0,3.0,65,0.00,,,0.00,Wunderground v.1.15,2013-03-02 10:13:00,
2013-03-02 05:18:00,50.9,40.3,29.99,ENE,68,0.0,3.0,67,0.00,,,0.00,Wunderground v.1.15,2013-03-02 10:18:00,
2013-03-02 05:23:00,50.5,40.3,30.00,NE,44,0.0,1.0,68,0.00,,,0.00,Wunderground v.1.15,2013-03-02 10:23:00,
2013-03-02 05:28:00,50.3,40.5,30.00,NNE,30,0.0,1.0,69,0.00,,,0.00,Wunderground v.1.15,2013-03-02 10:28:00,
2013-03-02 05:33:00,50.1,40.3,30.00,NNE,32,0.0,1.0,69,0.00,,,0.00,Wunderground v.1.15,2013-03-02 10:33:00,
2013-03-02 05:38:00,49.9,40.5,30.00,NNE,32,0.0,1.0,70,0.00,,,0.00,Wunderground v.1.15,2013-03-02 10:38:00,
2013-03-02 05:43:00,49.4,40.4,30.00,NNE,32,0.0,0.0,71,0.00,,,0.00,Wunderground v.1.15,2013-03-02 10:43:00,
2013-03-02 05:48:00,49.1,40.5,30.00,ENE,70,0.0,1.0,72,0.00,,,0.00,Wunderground v.1.15,2013-03-02 10:48:00,
2013-03-02 05:53:00,48.9,40.3,30.00,ENE,69,1.0,2.0,72,0.00,,,0.00,Wunderground v.1.15,2013-03-02 10:53:00,
2013-03-02 05:58:00,48.8,40.5,30.00,NE,48,2.0,2.0,73,0.00,,,0.00,Wunderground v.1.15,2013-03-02 10:58:00,
2013-03-02 06:03:00,48.6,40.3,30.01,ENE,63,1.0,2.0,73,0.00,,,0.00,Wunderground v.1.15,2013-03-02 11:03:00,
2013-03-02 06:08:00,48.3,40.0,30.01,NNE,32,0.0,3.0,73,0.00,,,0.00,Wunderground v.1.15,2013-03-02 11:08:00,
2013-03-02 06:13:00,48.2,39.9,30.01,NE,54,1.0,1.0,73,0.00,,,0.00,Wunderground v.1.15,2013-03-02 11:13:00,
2013-03-02 06:18:00,48.0,39.8,30.01,ENE,77,0.0,1.0,73,0.00,,,0.00,Wunderground v.1.15,2013-03-02 11:18:00,
2013-03-02 06:23:00,47.8,39.9,30.01,ENE,77,0.0,1.0,74,0.00,,,0.00,Wunderground v.1.15,2013-03-02 11:23:00,
2013-03-02 06:28:00,47.5,39.6,30.01,ENE,76,1.0,1.0,74,0.00,,,0.00,Wunderground v.1.15,2013-03-02 11:28:00,
2013-03-02 06:33:00,47.4,39.9,30.01,ENE,76,0.0,0.0,75,0.00,,,0.00,Wunderground v.1.15,2013-03-02 11:33:00,
2013-03-02 06:38:00,47.1,39.9,30.01,ENE,76,0.0,1.0,76,0.00,,,0.00,Wunderground v.1.15,2013-03-02 11:38:00,
2013-03-02 06:43:00,46.8,39.6,30.01,NNE,33,0.0,1.0,76,0.00,,,0.00,Wunderground v.1.15,2013-03-02 11:43:00,
2013-03-02 06:48:00,46.7,39.9,30.01,NE,53,0.0,1.0,77,0.00,,,0.00,Wunderground v.1.15,2013-03-02 11:48:00,
2013-03-02 06:53:00,46.4,39.6,30.01,NE,53,0.0,1.0,77,0.00,,,0.00,Wunderground v.1.15,2013-03-02 11:53:00,
2013-03-02 06:58:00,46.4,39.6,30.01,NE,52,0.0,1.0,77,0.00,,,0.00,Wunderground v.1.15,2013-03-02 11:58:00,
2013-03-02 07:03:00,46.5,39.3,30.02,ENE,58,0.0,0.0,76,0.00,,,0.00,Wunderground v.1.15,2013-03-02 12:03:00,
2013-03-02 07:08:00,46.7,39.2,30.01,NE,56,0.0,1.0,75,0.00,,,0.00,Wunderground v.1.15,2013-03-02 12:08:00,
2013-03-02 07:13:00,47.2,38.6,30.01,NNE,23,0.0,2.0,72,0.00,,,0.00,Wunderground v.1.15,2013-03-02 12:13:00,
2013-03-02 07:18:00,47.8,37.7,30.03,NE,48,1.0,4.0,68,0.00,,,0.00,Wunderground v.1.15,2013-03-02 12:18:00,
2013-03-02 07:23:00,48.3,37.5,30.03,NNE,15,0.0,1.0,66,0.00,,,0.00,Wunderground v.1.15,2013-03-02 12:23:00,
2013-03-02 07:28:00,48.5,37.3,30.03,ENE,76,1.0,3.0,65,0.00,,,0.00,Wunderground v.1.15,2013-03-02 12:28:00,
2013-03-02 07:33:00,48.6,38.9,30.04,ENE,63,0.0,1.0,69,0.00,,,0.00,Wunderground v.1.15,2013-03-02 12:33:00,
2013-03-02 07:38:00,48.5,38.8,30.05,NNE,21,1.0,3.0,69,0.00,,,0.00,Wunderground v.1.15,2013-03-02 12:38:00,
2013-03-02 07:43:00,48.4,39.1,30.05,NE,55,0.0,1.0,70,0.00,,,0.00,Wunderground v.1.15,2013-03-02 12:43:00,
2013-03-02 07:48:00,48.3,40.0,30.05,NE,55,0.0,1.0,73,0.00,,,0.00,Wunderground v.1.15,2013-03-02 12:48:00,
2013-03-02 07:53:00,48.1,40.5,30.05,NE,55,0.0,0.0,75,0.00,,,0.00,Wunderground v.1.15,2013-03-02 12:53:00,
2013-03-02 07:58:00,48.0,40.8,30.05,NE,55,0.0,0.0,76,0.00,,,0.00,Wunderground v.1.15,2013-03-02 12:58:00,
2013-03-02 08:03:00,47.9,41.7,30.05,NE,44,0.0,1.0,79,0.00,,,0.00,Wunderground v.1.15,2013-03-02 13:03:00,
2013-03-02 08:08:00,47.7,42.2,30.05,NE,44,0.0,1.0,81,0.00,,,0.00,Wunderground v.1.15,2013-03-02 13:08:00,
2013-03-02 08:13:00,47.6,40.1,30.06,NE,45,0.0,0.0,75,0.00,,,0.00,Wunderground v.1.15,2013-03-02 13:13:00,
2013-03-02 08:18:00,47.5,40.6,30.05,NE,45,0.0,0.0,77,0.00,,,0.00,Wunderground v.1.15,2013-03-02 13:18:00,
2013-03-02 08:23:00,47.5,41.3,30.06,NE,44,0.0,0.0,79,0.00,,,0.00,Wunderground v.1.15,2013-03-02 13:23:00,
2013-03-02 08:28:00,47.6,41.4,30.06,NE,45,1.0,1.0,79,0.00,,,0.00,Wunderground v.1.15,2013-03-02 13:28:00,
2013-03-02 08:33:00,47.8,41.3,30.05,NE,51,0.0,2.0,78,0.00,,,0.00,Wunderground v.1.15,2013-03-02 13:33:00,
2013-03-02 08:38:00,48.1,40.5,30.06,North,356,2.0,3.0,75,0.00,,,0.00,Wunderground v.1.15,2013-03-02 13:38:00,
2013-03-02 08:43:00,48.3,40.0,30.06,ENE,68,2.0,2.0,73,0.00,,,0.00,Wunderground v.1.15,2013-03-02 13:43:00,
2013-03-02 08:48:00,48.7,39.7,30.06,NE,42,0.0,4.0,71,0.00,,,0.00,Wunderground v.1.15,2013-03-02 13:48:00,
2013-03-02 08:53:00,49.3,40.7,30.06,NE,35,1.0,1.0,72,0.00,,,0.00,Wunderground v.1.15,2013-03-02 13:53:00,
2013-03-02 08:58:00,50.3,40.5,30.05,NNE,29,0.0,2.0,69,0.00,,,0.00,Wunderground v.1.15,2013-03-02 13:58:00,
2013-03-02 09:03:00,51.3,39.1,30.05,NE,47,2.0,4.0,63,0.00,,,0.00,Wunderground v.1.15,2013-03-02 14:03:00,
2013-03-02 09:08:00,50.9,39.5,30.06,ENE,58,1.0,4.0,65,0.00,,,0.00,Wunderground v.1.15,2013-03-02 14:08:00,
2013-03-02 09:13:00,51.1,38.9,30.06,ENE,72,3.0,3.0,63,0.00,,,0.00,Wunderground v.1.15,2013-03-02 14:13:00,
2013-03-02 09:18:00,51.8,38.8,30.06,NE,48,2.0,5.0,61,0.00,,,0.00,Wunderground v.1.15,2013-03-02 14:18:00,
2013-03-02 09:23:00,52.2,39.6,30.06,NE,51,5.0,7.0,62,0.00,,,0.00,Wunderground v.1.15,2013-03-02 14:23:00,
2013-03-02 09:28:00,52.7,38.8,30.06,NNE,25,6.0,7.0,59,0.00,,,0.00,Wunderground v.1.15,2013-03-02 14:28:00,
2013-03-02 09:33:00,52.2,37.9,30.07,ENE,60,7.0,7.0,58,0.00,,,0.00,Wunderground v.1.15,2013-03-02 14:33:00,
2013-03-02 09:38:00,51.5,36.8,30.07,NNE,13,3.0,12.0,57,0.00,,,0.00,Wunderground v.1.15,2013-03-02 14:38:00,
2013-03-02 09:43:00,51.3,37.0,30.07,NE,50,4.0,7.0,58,0.00,,,0.00,Wunderground v.1.15,2013-03-02 14:43:00,
2013-03-02 09:48:00,52.0,38.5,30.07,North,354,1.0,7.0,60,0.00,,,0.00,Wunderground v.1.15,2013-03-02 14:48:00,
2013-03-02 09:53:00,52.8,38.0,30.07,NE,56,3.0,8.0,57,0.00,,,0.00,Wunderground v.1.15,2013-03-02 14:53:00,
2013-03-02 09:58:00,53.5,41.6,30.06,NE,51,2.0,8.0,64,0.00,,,0.00,Wunderground v.1.15,2013-03-02 14:58:00,
2013-03-02 10:03:00,54.0,41.3,30.07,NE,56,6.0,8.0,62,0.00,,,0.00,Wunderground v.1.15,2013-03-02 15:03:00,
2013-03-02 10:08:00,53.2,41.3,30.07,North,11,3.0,10.0,64,0.00,,,0.00,Wunderground v.1.15,2013-03-02 15:08:00,
2013-03-02 10:13:00,52.4,41.0,30.07,NE,56,1.0,6.0,65,0.00,,,0.00,Wunderground v.1.15,2013-03-02 15:13:00,
2013-03-02 10:18:00,52.2,42.3,30.08,SE,134,0.0,6.0,69,0.00,,,0.00,Wunderground v.1.15,2013-03-02 15:18:00,
2013-03-02 10:23:00,52.2,42.7,30.08,NE,39,1.0,4.0,70,0.00,,,0.00,Wunderground v.1.15,2013-03-02 15:23:00,
2013-03-02 10:28:00,52.2,43.4,30.08,NNE,12,2.0,7.0,72,0.00,,,0.00,Wunderground v.1.15,2013-03-02 15:28:00,
2013-03-02 10:33:00,52.6,43.8,30.08,NNE,30,4.0,5.0,72,0.00,,,0.00,Wunderground v.1.15,2013-03-02 15:33:00,
2013-03-02 10:38:00,52.9,43.4,30.08,NE,56,3.0,10.0,70,0.00,,,0.00,Wunderground v.1.15,2013-03-02 15:38:00,
2013-03-02 10:43:00,53.2,43.7,30.08,SSE,160,2.0,7.0,70,0.00,,,0.00,Wunderground v.1.15,2013-03-02 15:43:00,
2013-03-02 10:48:00,53.8,43.5,30.09,ENE,70,4.0,11.0,68,0.00,,,0.00,Wunderground v.1.15,2013-03-02 15:48:00,
2013-03-02 10:53:00,53.8,43.1,30.09,ENE,68,1.0,15.0,67,0.00,,,0.00,Wunderground v.1.15,2013-03-02 15:53:00,
2013-03-02 10:58:00,54.2,43.9,30.09,NNE,30,6.0,15.0,68,0.00,,,0.00,Wunderground v.1.15,2013-03-02 15:58:00,
2013-03-02 11:03:00,55.3,44.1,30.09,NE,56,1.0,6.0,66,0.00,,,0.00,Wunderground v.1.15,2013-03-02 16:03:00,
2013-03-02 11:08:00,56.6,44.1,30.09,NNE,25,3.0,9.0,63,0.00,,,0.00,Wunderground v.1.15,2013-03-02 16:08:00,
2013-03-02 11:13:00,58.8,45.8,30.09,SSW,210,3.0,3.0,62,0.00,,,0.00,Wunderground v.1.15,2013-03-02 16:13:00,
2013-03-02 11:18:00,59.9,44.6,30.09,SE,127,2.0,11.0,57,0.00,,,0.00,Wunderground v.1.15,2013-03-02 16:18:00,
2013-03-02 11:23:00,60.4,44.6,30.09,SE,136,1.0,8.0,56,0.00,,,0.00,Wunderground v.1.15,2013-03-02 16:23:00,
2013-03-02 11:28:00,59.9,42.2,30.09,East,98,3.0,14.0,52,0.00,,,0.00,Wunderground v.1.15,2013-03-02 16:28:00,
2013-03-02 11:33:00,58.8,43.1,30.09,SSE,148,2.0,3.0,56,0.00,,,0.00,Wunderground v.1.15,2013-03-02 16:33:00,
2013-03-02 11:38:00,60.0,44.3,30.08,ENE,60,1.0,5.0,56,0.00,,,0.00,Wunderground v.1.15,2013-03-02 16:38:00,
2013-03-02 11:43:00,59.9,42.2,30.08,NNE,27,0.0,5.0,52,0.00,,,0.00,Wunderground v.1.15,2013-03-02 16:43:00,
2013-03-02 11:48:00,59.3,42.2,30.08,SE,141,2.0,5.0,53,0.00,,,0.00,Wunderground v.1.15,2013-03-02 16:48:00,
2013-03-02 11:53:00,60.4,43.7,30.08,NNE,30,2.0,6.0,54,0.00,,,0.00,Wunderground v.1.15,2013-03-02 16:53:00,
2013-03-02 11:58:00,61.4,43.1,30.08,NE,56,4.0,8.0,51,0.00,,,0.00,Wunderground v.1.15,2013-03-02 16:58:00,
2013-03-02 12:03:00,60.0,43.8,30.08,NNE,13,1.0,5.0,55,0.00,,,0.00,Wunderground v.1.15,2013-03-02 17:03:00,
2013-03-02 12:08:00,59.5,42.3,30.08,ENE,61,4.0,8.0,53,0.00,,,0.00,Wunderground v.1.15,2013-03-02 17:08:00,
2013-03-02 12:13:00,58.4,42.8,30.07,NE,52,5.0,9.0,56,0.00,,,0.00,Wunderground v.1.15,2013-03-02 17:13:00,
2013-03-02 12:18:00,59.6,44.8,30.07,SW,223,2.0,9.0,58,0.00,,,0.00,Wunderground v.1.15,2013-03-02 17:18:00,
2013-03-02 12:23:00,60.1,45.3,30.07,ENE,64,2.0,13.0,58,0.00,,,0.00,Wunderground v.1.15,2013-03-02 17:23:00,
2013-03-02 12:28:00,59.3,43.1,30.07,NE,51,3.0,13.0,55,0.00,,,0.00,Wunderground v.1.15,2013-03-02 17:28:00,
2013-03-02 12:33:00,59.2,44.4,30.07,NE,56,5.0,10.0,58,0.00,,,0.00,Wunderground v.1.15,2013-03-02 17:33:00,
2013-03-02 12:38:00,59.1,43.4,30.07,ENE,74,1.0,12.0,56,0.00,,,0.00,Wunderground v.1.15,2013-03-02 17:38:00,
2013-03-02 12:43:00,58.8,42.7,30.07,SE,136,0.0,7.0,55,0.00,,,0.00,Wunderground v.1.15,2013-03-02 17:43:00,
2013-03-02 12:48:00,58.3,42.7,30.07,NNE,30,2.0,10.0,56,0.00,,,0.00,Wunderground v.1.15,2013-03-02 17:48:00,
2013-03-02 12:53:00,57.7,42.1,30.06,ENE,74,0.0,8.0,56,0.00,,,0.00,Wunderground v.1.15,2013-03-02 17:53:00,
2013-03-02 12:58:00,57.4,41.8,30.06,NE,51,4.0,8.0,56,0.00,,,0.00,Wunderground v.1.15,2013-03-02 17:58:00,
2013-03-02 13:03:00,57.1,42.9,30.06,ENE,68,6.0,11.0,59,0.00,,,0.00,Wunderground v.1.15,2013-03-02 18:03:00,
2013-03-02 13:08:00,57.5,43.3,30.06,ENE,58,1.0,12.0,59,0.00,,,0.00,Wunderground v.1.15,2013-03-02 18:08:00,
2013-03-02 13:13:00,57.4,42.7,30.05,NE,41,5.0,16.0,58,0.00,,,0.00,Wunderground v.1.15,2013-03-02 18:13:00,
2013-03-02 13:18:00,57.4,43.6,30.05,ESE,113,1.0,16.0,60,0.00,,,0.00,Wunderground v.1.15,2013-03-02 18:18:00,
2013-03-02 13:23:00,58.0,43.7,30.05,ENE,58,2.0,17.0,59,0.00,,,0.00,Wunderground v.1.15,2013-03-02 18:23:00,
2013-03-02 13:28:00,59.4,45.1,30.05,NW,308,2.0,17.0,59,0.00,,,0.00,Wunderground v.1.15,2013-03-02 18:28:00,
2013-03-02 13:33:00,60.8,45.5,30.04,SSE,154,3.0,8.0,57,0.00,,,0.00,Wunderground v.1.15,2013-03-02 18:33:00,
2013-03-02 13:38:00,60.5,43.3,30.04,NE,51,3.0,8.0,53,0.00,,,0.00,Wunderground v.1.15,2013-03-02 18:38:00,
2013-03-02 13:43:00,59.5,42.8,30.04,ENE,75,3.0,10.0,54,0.00,,,0.00,Wunderground v.1.15,2013-03-02 18:43:00,
2013-03-02 13:48:00,58.4,42.8,30.03,NNE,31,5.0,10.0,56,0.00,,,0.00,Wunderground v.1.15,2013-03-02 18:48:00,
2013-03-02 13:53:00,58.6,44.3,30.03,NE,38,1.0,11.0,59,0.00,,,0.00,Wunderground v.1.15,2013-03-02 18:53:00,
2013-03-02 13:58:00,59.8,44.1,30.03,NE,49,3.0,11.0,56,0.00,,,0.00,Wunderground v.1.15,2013-03-02 18:58:00,
2013-03-02 14:03:00,60.5,43.8,30.03,ENE,77,5.0,5.0,54,0.00,,,0.00,Wunderground v.1.15,2013-03-02 19:03:00,
2013-03-02 14:08:00,60.0,43.3,30.03,North,4,1.0,6.0,54,0.00,,,0.00,Wunderground v.1.15,2013-03-02 19:08:00,
2013-03-02 14:13:00,59.8,42.1,30.03,NNE,23,2.0,12.0,52,0.00,,,0.00,Wunderground v.1.15,2013-03-02 19:13:00,
2013-03-02 14:18:00,60.0,44.3,30.02,West,264,3.0,12.0,56,0.00,,,0.00,Wunderground v.1.15,2013-03-02 19:18:00,
2013-03-02 14:24:00,58.8,42.7,30.02,NNE,22,12.0,12.0,55,0.00,,,0.00,Wunderground v.1.15,2013-03-02 19:24:00,
2013-03-02 14:29:00,59.2,43.0,30.02,NE,48,1.0,17.0,55,0.00,,,0.00,Wunderground v.1.15,2013-03-02 19:29:00,
2013-03-02 16:27:00,56.4,42.7,30.00,WNW,301,2.0,2.0,60,0.00,,,0.00,Wunderground v.1.15,2013-03-02 21:27:00,
2013-03-02 16:32:00,56.3,41.3,30.00,SE,136,0.0,8.0,57,0.00,,,0.00,Wunderground v.1.15,2013-03-02 21:32:00,
2013-03-02 16:37:00,56.5,41.9,30.00,ENE,75,1.0,3.0,58,0.00,,,0.00,Wunderground v.1.15,2013-03-02 21:37:00,
2013-03-02 16:42:00,56.3,42.1,30.00,NW,321,0.0,6.0,59,0.00,,,0.00,Wunderground v.1.15,2013-03-02 21:42:00,
2013-03-02 16:47:00,56.8,41.7,30.00,SE,127,2.0,3.0,57,0.00,,,0.00,Wunderground v.1.15,2013-03-02 21:47:00,
2013-03-02 16:52:00,56.7,41.2,30.00,ESE,121,1.0,10.0,56,0.00,,,0.00,Wunderground v.1.15,2013-03-02 21:52:00,
2013-03-02 16:57:00,56.5,41.4,30.00,WSW,254,0.0,2.0,57,0.00,,,0.00,Wunderground v.1.15,2013-03-02 21:57:00,
2013-03-02 17:02:00,56.1,41.5,30.00,NE,51,1.0,2.0,58,0.00,,,0.00,Wunderground v.1.15,2013-03-02 22:02:00,
2013-03-02 17:07:00,55.8,40.8,30.00,ESE,122,2.0,7.0,57,0.00,,,0.00,Wunderground v.1.15,2013-03-02 22:07:00,
2013-03-02 17:12:00,55.4,41.3,30.01,SSE,150,0.0,2.0,59,0.00,,,0.00,Wunderground v.1.15,2013-03-02 22:12:00,
2013-03-02 17:17:00,55.1,41.5,30.01,ENE,62,1.0,4.0,60,0.00,,,0.00,Wunderground v.1.15,2013-03-02 22:17:00,
2013-03-02 17:22:00,54.6,41.4,30.00,SSE,148,0.0,6.0,61,0.00,,,0.00,Wunderground v.1.15,2013-03-02 22:22:00,
2013-03-02 17:27:00,54.5,41.3,30.01,NE,49,0.0,9.0,61,0.00,,,0.00,Wunderground v.1.15,2013-03-02 22:27:00,
2013-03-02 17:32:00,54.3,41.1,30.01,ENE,60,1.0,6.0,61,0.00,,,0.00,Wunderground v.1.15,2013-03-02 22:32:00,
2013-03-02 17:37:00,54.3,41.1,30.01,ENE,63,2.0,6.0,61,0.00,,,0.00,Wunderground v.1.15,2013-03-02 22:37:00,
2013-03-02 17:42:00,54.3,41.1,30.01,NE,41,0.0,3.0,61,0.00,,,0.00,Wunderground v.1.15,2013-03-02 22:42:00,
2013-03-02 17:47:00,54.4,40.8,30.01,ENE,73,2.0,4.0,60,0.00,,,0.00,Wunderground v.1.15,2013-03-02 22:47:00,
2013-03-02 17:53:00,54.4,41.2,30.01,West,276,1.0,2.0,61,0.00,,,0.00,Wunderground v.1.15,2013-03-02 22:53:00,
2013-03-02 17:58:00,54.3,41.6,30.01,ENE,62,1.0,3.0,62,0.00,,,0.00,Wunderground v.1.15,2013-03-02 22:58:00,
2013-03-02 18:03:00,54.1,40.9,30.01,SE,143,2.0,5.0,61,0.00,,,0.00,Wunderground v.1.15,2013-03-02 23:03:00,
2013-03-02 18:08:00,54.0,40.8,30.01,SW,217,1.0,5.0,61,0.00,,,0.00,Wunderground v.1.15,2013-03-02 23:08:00,
2013-03-02 18:13:00,53.9,41.2,30.01,ENE,58,1.0,4.0,62,0.00,,,0.00,Wunderground v.1.15,2013-03-02 23:13:00,
2013-03-02 18:18:00,53.8,40.7,30.01,WSW,258,1.0,5.0,61,0.00,,,0.00,Wunderground v.1.15,2013-03-02 23:18:00,
2013-03-02 18:23:00,53.7,40.6,30.01,NNE,24,5.0,7.0,61,0.00,,,0.00,Wunderground v.1.15,2013-03-02 23:23:00,
2013-03-02 18:28:00,53.6,40.9,30.01,NE,52,1.0,8.0,62,0.00,,,0.00,Wunderground v.1.15,2013-03-02 23:28:00,
2013-03-02 18:33:00,53.6,40.5,30.01,ESE,110,0.0,3.0,61,0.00,,,0.00,Wunderground v.1.15,2013-03-02 23:33:00,
2013-03-02 18:38:00,53.5,40.4,30.01,ESE,102,2.0,5.0,61,0.00,,,0.00,Wunderground v.1.15,2013-03-02 23:38:00,
2013-03-02 18:43:00,53.5,40.4,30.01,SSE,160,1.0,2.0,61,0.00,,,0.00,Wunderground v.1.15,2013-03-02 23:43:00,
2013-03-02 18:48:00,53.5,40.4,30.01,ESE,102,1.0,3.0,61,0.00,,,0.00,Wunderground v.1.15,2013-03-02 23:48:00,
2013-03-02 18:53:00,53.5,40.4,30.01,East,82,0.0,4.0,61,0.00,,,0.00,Wunderground v.1.15,2013-03-02 23:53:00,
2013-03-02 18:58:00,53.4,39.9,30.01,SE,134,1.0,4.0,60,0.00,,,0.00,Wunderground v.1.15,2013-03-02 23:58:00,
2013-03-02 19:03:00,53.3,39.3,30.01,North,11,1.0,4.0,59,0.00,,,0.00,Wunderground v.1.15,2013-03-03 00:03:00,
2013-03-02 19:08:00,53.2,39.7,30.01,ENE,59,1.0,4.0,60,0.00,,,0.00,Wunderground v.1.15,2013-03-03 00:08:00,
2013-03-02 19:13:00,53.2,39.7,30.01,NE,54,0.0,2.0,60,0.00,,,0.00,Wunderground v.1.15,2013-03-03 00:13:00,
2013-03-02 19:18:00,53.0,39.5,30.01,NE,44,1.0,5.0,60,0.00,,,0.00,Wunderground v.1.15,2013-03-03 00:18:00,
2013-03-02 19:23:00,52.8,38.9,30.01,SSE,164,1.0,2.0,59,0.00,,,0.00,Wunderground v.1.15,2013-03-03 00:23:00,
2013-03-02 19:28:00,52.8,39.3,30.02,ENE,75,1.0,5.0,60,0.00,,,0.00,Wunderground v.1.15,2013-03-03 00:28:00,
2013-03-02 19:33:00,52.8,39.3,30.02,North,349,1.0,3.0,60,0.00,,,0.00,Wunderground v.1.15,2013-03-03 00:33:00,
2013-03-02 19:38:00,52.9,40.2,30.02,ESE,121,3.0,5.0,62,0.00,,,0.00,Wunderground v.1.15,2013-03-03 00:38:00,
2013-03-02 19:43:00,53.1,40.0,30.02,SSE,148,0.0,1.0,61,0.00,,,0.00,Wunderground v.1.15,2013-03-03 00:43:00,
2013-03-02 19:48:00,53.1,39.6,30.02,East,79,0.0,4.0,60,0.00,,,0.00,Wunderground v.1.15,2013-03-03 00:48:00,
2013-03-02 19:53:00,53.1,39.6,30.02,NNW,340,1.0,2.0,60,0.00,,,0.00,Wunderground v.1.15,2013-03-03 00:53:00,
2013-03-02 19:58:00,53.1,39.6,30.02,ENE,73,1.0,4.0,60,0.00,,,0.00,Wunderground v.1.15,2013-03-03 00:58:00,
2013-03-02 20:03:00,53.1,39.6,30.02,WNW,290,0.0,2.0,60,0.00,,,0.00,Wunderground v.1.15,2013-03-03 01:03:00,
2013-03-02 20:08:00,53.2,39.2,30.02,SW,220,1.0,5.0,59,0.00,,,0.00,Wunderground v.1.15,2013-03-03 01:08:00,
2013-03-02 20:13:00,53.3,38.4,30.03,ESE,120,1.0,2.0,57,0.00,,,0.00,Wunderground v.1.15,2013-03-03 01:13:00,
2013-03-02 20:18:00,53.3,37.5,30.02,West,281,2.0,4.0,55,0.00,,,0.00,Wunderground v.1.15,2013-03-03 01:18:00,
2013-03-02 20:23:00,53.4,37.6,30.02,SW,217,2.0,4.0,55,0.00,,,0.00,Wunderground v.1.15,2013-03-03 01:23:00,
2013-03-02 20:28:00,53.6,37.8,30.03,South,179,1.0,7.0,55,0.00,,,0.00,Wunderground v.1.15,2013-03-03 01:28:00,
2013-03-02 20:33:00,53.6,36.9,30.03,NE,56,1.0,3.0,53,0.00,,,0.00,Wunderground v.1.15,2013-03-03 01:33:00,
2013-03-02 20:38:00,53.7,37.9,30.03,East,91,0.0,4.0,55,0.00,,,0.00,Wunderground v.1.15,2013-03-03 01:38:00,
2013-03-02 20:43:00,53.7,38.8,30.03,NNE,26,1.0,4.0,57,0.00,,,0.00,Wunderground v.1.15,2013-03-03 01:43:00,
2013-03-02 20:48:00,53.6,39.2,30.02,NE,54,4.0,9.0,58,0.00,,,0.00,Wunderground v.1.15,2013-03-03 01:48:00,
2013-03-02 20:53:00,53.5,38.6,30.03,East,83,1.0,19.0,57,0.00,,,0.00,Wunderground v.1.15,2013-03-03 01:53:00,
2013-03-02 20:58:00,53.4,38.1,30.03,WSW,240,1.0,19.0,56,0.00,,,0.00,Wunderground v.1.15,2013-03-03 01:58:00,
2013-03-02 21:03:00,53.4,38.5,30.03,WSW,250,0.0,3.0,57,0.00,,,0.00,Wunderground v.1.15,2013-03-03 02:03:00,
2013-03-02 21:08:00,53.3,37.5,30.02,NE,41,1.0,5.0,55,0.00,,,0.00,Wunderground v.1.15,2013-03-03 02:08:00,
2013-03-02 21:13:00,53.2,37.9,30.02,SE,144,2.0,5.0,56,0.00,,,0.00,Wunderground v.1.15,2013-03-03 02:13:00,
2013-03-02 21:18:00,53.2,38.4,30.02,SSW,208,3.0,5.0,57,0.00,,,0.00,Wunderground v.1.15,2013-03-03 02:18:00,
2013-03-02 21:23:00,53.2,38.4,30.02,SSW,205,1.0,4.0,57,0.00,,,0.00,Wunderground v.1.15,2013-03-03 02:23:00,
2013-03-02 21:28:00,53.3,38.4,30.02,NW,321,1.0,6.0,57,0.00,,,0.00,Wunderground v.1.15,2013-03-03 02:28:00,
2013-03-02 21:33:00,53.1,37.8,30.02,NE,37,2.0,5.0,56,0.00,,,0.00,Wunderground v.1.15,2013-03-03 02:33:00,
2013-03-02 21:38:00,53.0,38.2,30.02,NE,41,0.0,5.0,57,0.00,,,0.00,Wunderground v.1.15,2013-03-03 02:38:00,
2013-03-02 21:43:00,53.0,39.0,30.02,NE,51,1.0,7.0,59,0.00,,,0.00,Wunderground v.1.15,2013-03-03 02:43:00,
2013-03-02 21:48:00,53.0,39.5,30.02,NE,54,2.0,7.0,60,0.00,,,0.00,Wunderground v.1.15,2013-03-03 02:48:00,
2013-03-02 21:53:00,53.0,39.5,30.02,SSE,150,2.0,4.0,60,0.00,,,0.00,Wunderground v.1.15,2013-03-03 02:53:00,
2013-03-02 21:58:00,52.9,39.4,30.02,East,96,3.0,4.0,60,0.00,,,0.00,Wunderground v.1.15,2013-03-03 02:58:00,
2013-03-02 22:03:00,52.9,39.0,30.02,NW,308,0.0,3.0,59,0.00,,,0.00,Wunderground v.1.15,2013-03-03 03:03:00,
2013-03-02 22:08:00,52.8,39.3,30.02,NNW,342,2.0,4.0,60,0.00,,,0.00,Wunderground v.1.15,2013-03-03 03:08:00,
2013-03-02 22:13:00,52.9,39.4,30.02,SSE,162,1.0,9.0,60,0.00,,,0.00,Wunderground v.1.15,2013-03-03 03:13:00,
2013-03-02 22:18:00,53.1,40.0,30.02,ENE,64,0.0,9.0,61,0.00,,,0.00,Wunderground v.1.15,2013-03-03 03:18:00,
2013-03-02 22:23:00,53.0,39.5,30.02,NNE,16,1.0,2.0,60,0.00,,,0.00,Wunderground v.1.15,2013-03-03 03:23:00,
2013-03-02 22:28:00,52.9,39.4,30.02,ESE,106,0.0,2.0,60,0.00,,,0.00,Wunderground v.1.15,2013-03-03 03:28:00,
2013-03-02 22:33:00,52.8,39.3,30.02,East,93,2.0,3.0,60,0.00,,,0.00,Wunderground v.1.15,2013-03-03 03:33:00,
2013-03-02 22:38:00,52.9,39.0,30.02,SSE,150,2.0,5.0,59,0.00,,,0.00,Wunderground v.1.15,2013-03-03 03:38:00,
2013-03-02 22:44:00,53.1,39.1,30.02,West,266,3.0,3.0,59,0.00,,,0.00,Wunderground v.1.15,2013-03-03 03:44:00,
2013-03-02 22:49:00,53.2,39.2,30.02,East,79,2.0,9.0,59,0.00,,,0.00,Wunderground v.1.15,2013-03-03 03:49:00,
2013-03-02 22:54:00,53.1,39.1,30.02,East,94,0.0,8.0,59,0.00,,,0.00,Wunderground v.1.15,2013-03-03 03:54:00,
2013-03-02 22:59:00,52.9,39.0,30.02,SW,221,0.0,8.0,59,0.00,,,0.00,Wunderground v.1.15,2013-03-03 03:59:00,
2013-03-02 23:04:00,52.8,38.9,30.03,ESE,118,0.0,2.0,59,0.00,,,0.00,Wunderground v.1.15,2013-03-03 04:04:00,
2013-03-02 23:09:00,52.8,39.3,30.02,SE,144,1.0,4.0,60,0.00,,,0.00,Wunderground v.1.15,2013-03-03 04:09:00,
2013-03-02 23:14:00,53.0,39.9,30.02,NE,49,2.0,6.0,61,0.00,,,0.00,Wunderground v.1.15,2013-03-03 04:14:00,
2013-03-02 23:19:00,53.0,39.9,30.03,South,179,1.0,7.0,61,0.00,,,0.00,Wunderground v.1.15,2013-03-03 04:19:00,
2013-03-02 23:24:00,53.0,39.9,30.02,NNE,29,0.0,2.0,61,0.00,,,0.00,Wunderground v.1.15,2013-03-03 04:24:00,
2013-03-02 23:29:00,52.9,39.4,30.02,NE,37,0.0,4.0,60,0.00,,,0.00,Wunderground v.1.15,2013-03-03 04:29:00,
2013-03-02 23:34:00,52.9,39.0,30.02,NE,43,3.0,6.0,59,0.00,,,0.00,Wunderground v.1.15,2013-03-03 04:34:00,
2013-03-02 23:39:00,52.8,38.9,30.02,NE,41,2.0,6.0,59,0.00,,,0.00,Wunderground v.1.15,2013-03-03 04:39:00,
2013-03-02 23:44:00,52.7,38.8,30.02,ENE,58,0.0,3.0,59,0.00,,,0.00,Wunderground v.1.15,2013-03-03 04:44:00,
2013-03-02 23:49:00,52.6,38.7,30.02,SSW,212,2.0,7.0,59,0.00,,,0.00,Wunderground v.1.15,2013-03-03 04:49:00,
2013-03-02 23:54:00,52.5,38.1,30.02,SSE,158,1.0,5.0,58,0.00,,,0.00,Wunderground v.1.15,2013-03-03 04:54:00,
2013-03-02 23:59:00,52.5,38.1,30.02,NNE,15,4.0,5.0,58,0.00,,,0.00,Wunderground v.1.15,2013-03-03 04:59:00,